Find WorldView Legion 4

NORAD ID: 60453 Int'l Des: 2024-146 Owner: MAXARI Country: US operational
LEOCIRCULAR

現在のビュー

3D地球を読み込み中...

WorldView Legion 4について

説明を読み込み中...

次回通過

Passes for default location (London). Set your location on the main map for personalized predictions.

高度履歴

Loading altitude history...

軌道要素

1 60453U 24146B 26150.21035741 .00005278 00000-0 28387-3 0 9995
2 60453 45.0010 218.8691 0013663 214.2584 145.7414 15.15897608 98148
Epoch: May 30, 2026 • Age: 5 hours

現在のステータス

高度 513.5 km
速度 7.61 km/s
衛星直下点 19.37°N, 27.69°W
打ち上げ日 Aug 15, 2024
運用期間 1.7 years
タイプ earth observation

技術仕様

分類 Payload
質量 700.00 kg
乾燥質量 630.00 kg
総質量 700.00 kg
長さ 3.00 m
直径 2.00 m
スパン 5.00 m
形状 Box + panel
製造者 MAXSI
バスタイプ Legion
フェーズステータス In Orbit
所有者/国 MAXARI/US

Most Searched